Weather History for South Bend, IN

Change the Weather History Date:

Saturday, November 24, 2012

  Actual Average Record
Temperature  
Mean Temperature 28 °F 37 °F  
Max Temperature 32 °F 44 °F 65 °F (1973)
Min Temperature 24 °F 30 °F -6 °F (1950)
Degree Days  
Heating Degree Days 37 28  
Month to date heating degree days 565 550  
Since 1 July heating degree days 1148 1091  
Cooling Degree Days 0 0  
Month to date cooling degree days 0 0  
Year to date cooling degree days 1115 773  
Moisture  
Dew Point 20 °F    
Average Humidity 69    
Maximum Humidity 74    
Minimum Humidity 63    
Precipitation  
Precipitation T in 0.11 in 0.64 in (1927)
Month to date precipitation 0.26 2.63  
Year to date precipitation 31.26 34.75  
Snow  
Snow T in 0.20 in 5.00 in (2004)
Month to date snowfall T 3.2  
Since 1 July snowfall T 3.6  
Since 1 September snowfall 3.6  
Snow Depth 0.00 in    
Sea Level Pressure  
Sea Level Pressure 30.17 in    
Wind  
Wind Speed 10 mph (West)    
Max Wind Speed 18 mph    
Max Gust Speed 24 mph    
Visibility 10 miles    
Events      
T = Trace of Precipitation, MM = Missing Value Source: NWS Daily Summary

Daily Weather History Graph

Daily Weather History Graph

Search for Another Location

Airport:

Trip Planner

Search our weather history database for the weather conditions in past years. The results will help you decide how hot, cold, wet, or windy it might be!

Date:

Astronomy

Nov. 24, 2012 Rise Set
Actual Time 7:45 AM EST 5:18 PM EST
Civil Twilight 7:15 AM EST 5:48 PM EST
Nautical Twilight 6:40 AM EST 6:23 PM EST
Astronomical Twilight 6:07 AM EST 6:56 PM EST
Moon 3:04 PM EST (11/24) 3:59 AM EST (11/24)
Length of Visible Light 10h 33m
Length of Day
9h 32m
Waxing Gibbous, 87% of the Moon is Illuminated
Nov 24
Waxing Gibbous
Nov 28
Full
Dec 6
Last Quarter
Dec 13
New
Dec 20
First Quarter

Hourly Weather History & Observations

Time (EST) Temp. Windchill Dew Point Humidity Pressure Visibility Wind Dir Wind Speed Gust Speed Precip Events Conditions
12:54 AM 32.0 °F 24.2 °F 23.0 °F 69% 30.16 in 10.0 mi WNW 9.2 mph - N/A   Overcast
1:54 AM 32.0 °F 22.5 °F 21.9 °F 66% 30.16 in 10.0 mi WNW 12.7 mph - N/A   Overcast
2:54 AM 30.9 °F 21.7 °F 21.9 °F 69% 30.17 in 10.0 mi WNW 11.5 mph - N/A   Overcast
3:54 AM 30.9 °F 20.7 °F 21.9 °F 69% 30.17 in 10.0 mi WNW 13.8 mph - N/A   Overcast
4:54 AM 30.9 °F 19.8 °F 21.9 °F 69% 30.18 in 10.0 mi NW 16.1 mph - N/A   Overcast
5:54 AM 30.0 °F 20.5 °F 21.0 °F 69% 30.19 in 10.0 mi WNW 11.5 mph - N/A   Overcast
6:54 AM 30.9 °F 24.3 °F 21.9 °F 69% 30.19 in 10.0 mi NW 6.9 mph - 0.00 in   Overcast
7:54 AM 30.9 °F 22.2 °F 21.9 °F 69% 30.20 in 10.0 mi NNW 10.4 mph 19.6 mph N/A   Overcast
8:54 AM 30.9 °F 20.2 °F 21.0 °F 67% 30.22 in 10.0 mi NNW 15.0 mph - N/A   Overcast
9:54 AM 30.9 °F 22.2 °F 21.0 °F 67% 30.22 in 10.0 mi NW 10.4 mph - N/A   Overcast
10:54 AM 30.9 °F 21.7 °F 21.0 °F 67% 30.24 in 10.0 mi WNW 11.5 mph - N/A   Overcast
11:54 AM 30.9 °F 22.2 °F 21.9 °F 69% 30.22 in 10.0 mi WNW 10.4 mph - N/A   Overcast
12:54 PM 32.0 °F 23.0 °F 21.0 °F 64% 30.20 in 10.0 mi NW 11.5 mph - N/A   Overcast
1:54 PM 30.9 °F 22.8 °F 21.0 °F 67% 30.20 in 10.0 mi WNW 9.2 mph - N/A   Overcast
2:54 PM 30.9 °F 22.2 °F 21.9 °F 69% 30.19 in 10.0 mi West 10.4 mph - N/A   Overcast
3:54 PM 30.0 °F 21.7 °F 21.0 °F 69% 30.18 in 10.0 mi West 9.2 mph - N/A   Overcast
4:54 PM 28.9 °F 20.4 °F 19.9 °F 69% 30.18 in 10.0 mi West 9.2 mph - N/A   Overcast
5:54 PM 28.0 °F 22.8 °F 18.0 °F 66% 30.17 in 10.0 mi South 4.6 mph - N/A   Mostly Cloudy
6:54 PM 27.0 °F 21.6 °F 18.0 °F 69% 30.17 in 10.0 mi SW 4.6 mph - N/A   Mostly Cloudy
7:54 PM 25.0 °F 18.1 °F 17.1 °F 72% 30.14 in 10.0 mi South 5.8 mph - N/A   Mostly Cloudy
8:54 PM 26.1 °F 20.5 °F 18.0 °F 71% 30.12 in 10.0 mi South 4.6 mph - N/A   Mostly Cloudy
9:04 PM 26.6 °F 21.2 °F 17.6 °F 69% 30.09 in 10.0 mi South 4.6 mph - N/A   Partly Cloudy
9:54 PM 27.0 °F 18.7 °F 18.0 °F 69% 30.10 in 10.0 mi South 8.1 mph - N/A   Scattered Clouds
10:54 PM 28.0 °F 18.6 °F 19.0 °F 69% 30.08 in 10.0 mi South 10.4 mph - N/A   Overcast
11:54 PM 28.0 °F 18.6 °F 19.0 °F 69% 30.07 in 10.0 mi South 10.4 mph - N/A   Overcast